Regional Weather Roundup
Issued by NWS

Home | Current Version | Previous Version | Text Only | Print | Product List | Glossary On
Versions: 1 2 3 4 5 6 7 8 9 10 11 12 13 14 15 16 17 18 19 20 21 22 23 24 25 26 27 28 29 30 31 32 33 34 35 36 37 38 39 40 41 42 43 44 45 46 47 48 49 50
000
ASUS43 KLOT 251202
RWRIL

ILLINOIS REGIONAL WEATHER ROUNDUP
NATIONAL WEATHER SERVICE CHICAGO/ROMEOVILLE IL
700 AM CDT MON MAY 25 2015

NOTE: "FAIR" INDICATES FEW OR NO CLOUDS BELOW 12,000 FEET WITH NO
SIGNIFICANT WEATHER AND/OR OBSTRUCTIONS TO VISIBILITY.

* THESE STATIONS ARE NOT UNDER NWS QUALITY CONTROL. THEY ALSO MAY NOT
  REPORT WEATHER SUCH AS PRECIPITATION OR FOG.

ILZ001-002-007-009-015-016-024-251300-
NORTHWEST ILLINOIS

CITY           SKY/WX    TMP DP  RH WIND       PRES   REMARKS
MOLINE         CLOUDY    65  62  90 SW10      29.81R
6HR MIN TEMP:  65; 6HR MAX TEMP:  69; 6HR PCP:  0.03;

STERLING*      CLOUDY    66  63  88 SW8       29.81R
$$

ILZ003-004-008-010-011-017-018-251300-
NORTH CENTRAL ILLINOIS

CITY           SKY/WX    TMP DP  RH WIND       PRES   REMARKS
ROCKFORD       LGT RAIN  67  64  90 S18G26    29.80R FOG
6HR MIN TEMP:  67; 6HR MAX TEMP:  68; 6HR PCP:  0.40;

$$

ILZ005-006-012>014-019>023-251300-
NORTHEAST ILLINOIS

CITY           SKY/WX    TMP DP  RH WIND       PRES   REMARKS
CHICAGO-OHARE  CLOUDY    70  62  76 S21G28    29.84R
6HR MIN TEMP:  70; 6HR MAX TEMP:  73;

CHICAGO-MIDWAY CLOUDY    72  65  78 S14G28    29.85F
6HR MIN TEMP:  72; 6HR MAX TEMP:  76; 6HR PCP: TRACE;

AURORA         CLOUDY    69  62  78 S18       29.84R
6HR MIN TEMP:  67; 6HR MAX TEMP:  73; 6HR PCP: TRACE;

WAUKEGAN       CLOUDY    70  62  76 S20G30    29.82S
6HR MIN TEMP:  66; 6HR MAX TEMP:  71;

DUPAGE AIRPORT CLOUDY    69  63  81 S22G32    29.83S
6HR MIN TEMP:  67; 6HR MAX TEMP:  73; 6HR PCP: TRACE;

WHEELING       CLOUDY    71  62  73 S17G31    29.85S
6HR MIN TEMP:  68; 6HR MAX TEMP:  73;

NORTHERLY ISL    N/A     70  63  78 S17         N/A
$$

LMZ740>746-251300-
SOUTHERN LAKE MICHIGAN

STATION/POSITION SKY/WX   TEMP    WIND        PRES    VSBY  WAVE
                          AIR SEA DIR/SP/G                  HT/PER
                          (F)     (DEG/KT/KT) (MB)    (MI)  (FT/S)
SOUTHERN BUOY              48 38  170/ 14/ 14 1011.5R         2/ 3
HARRISON CRIB              69     190/ 29/ 33   N/A
BURNHAM HARBOR             71     180/ 14/ 24   N/A
CALUMET HARBOR             71     180/ 15/ 21   N/A
BURNS HARBOR               71     180/ 12/ 18 1012.5S
MICHIGAN CITY              72     160/ 14/ 20   N/A
MICHIGAN CITY 6N           66 53  190/ 12/ 16   N/A           1
ST. JOSEPH                 66 54  210/ 14/ 17   N/A           2/ 3
$$

ILZ025>027-034>036-040-047-049-050-058-095>099-251300-
WEST-CENTRAL ILLINOIS

CITY           SKY/WX    TMP DP  RH WIND       PRES   REMARKS
QUINCY         CLOUDY    64  62  93 W10       29.89R
$$

ILZ028>032-037-038-041>044-048-051>054-059>061-251300-
CENTRAL ILLINOIS

CITY           SKY/WX    TMP DP  RH WIND       PRES   REMARKS
DECATUR        CLOUDY    70  65  84 S16G24    29.92R
PEORIA         PTSUNNY   68  64  87 SW13      29.86R
6HR MIN TEMP:  68; 6HR MAX TEMP:  72; 6HR PCP:  0.13;

SPRINGFIELD    PTSUNNY   70  65  84 S17G26    29.88S
6HR MIN TEMP:  68; 6HR MAX TEMP:  70; 6HR PCP: TRACE;

TAYLORVILLE    NOT AVBL
$$

ILZ033-039-045-046-055>057-062-063-251300-
EAST-CENTRAL ILLINOIS

CITY           SKY/WX    TMP DP  RH WIND       PRES   REMARKS
CHAMPAIGN      CLOUDY    70  65  84 S20G29    29.93R
MATTOON        CLOUDY    69  66  90 S16G26    29.96R
$$

ILZ079-100>102-251300-
SOUTHWEST ILLINOIS

CITY           SKY/WX    TMP DP  RH WIND       PRES   REMARKS
ALTON          CLOUDY    70  70 100 S13       29.94R
BELLEVILLE     MOSUNNY   70  70  99 S16       29.95R
CAHOKIA*       PTSUNNY   71  65  81 SW7       29.96R
$$

ILZ064>066-069>071-074>076-080>082-084>086-088>090-092>094-251300-
SOUTH-CENTRAL ILLINOIS

CITY           SKY/WX    TMP DP  RH WIND       PRES   REMARKS
CARBONDALE     CLOUDY    69  66  90 S13       30.02R
6HR MIN TEMP:  69; 6HR MAX TEMP:  70; 6HR PCP:  0.05;

MARION         CLOUDY    70  66  88 S9        30.03R
MT. VERNON     CLOUDY    70  63  78 S16G24    30.01R
$$

ILZ067-068-072-073-078-083-087-091-251300-
SOUTHEAST ILLINOIS

CITY           SKY/WX    TMP DP  RH WIND       PRES   REMARKS
LAWRENCEVILLE  LGT RAIN  68  66  93 S17       30.03S
$$

ABBREVIATIONS USED IN REMARKS
   TC - TEMPERATURE IN CELSIUS
  WCI - WIND CHILL INDEX
   HX - HEAT INDEX
  VSB - VISIBILITY
$$



USA.gov is the U.S. government's official web portal to all federal, state and local government web resources and services.